CAPE
0 0 0 0 0 0 0 0 0 0 0 1 4 0 0 0 0 0 0 0 0 2 0 42 414 430 333 576 779 808 817 635 349 214 114 53 20 0 0 0 0 0 11 34
0 0 0 0 0 0 0 0 0 0 0 1 0 0 3 0 0 0 0 0 0 0 0 22 415 423 237 257 627 830 802 684 369 282 219 166 90 5 19 19 0 0 0 0
0 0 0 0 0 0 0 0 0 0 5 3 9 1 5 1 3 0 0 0 0 1 0 0 289 252 147 214 354 783 853 727 477 395 232 171 118 81 46 45 25 2 0 0
0 0 0 1 0 0 0 0 1 13 0 0 2 13 6 3 0 0 0 0 0 1 0 0 88 217 128 8 130 358 404 220 379 234 214 191 232 229 177 167 121 82 20 0
0 0 0 0 1 0 0 0 0 3 0 0 0 6 0 3 0 3 1 0 3 0 0 0 0 77 103 193 177 130 71 34 24 142 207 143 140 172 234 185 169 92 16 0
0 0 0 1 0 0 0 1 0 0 0 0 0 0 0 0 0 0 0 1 0 0 0 0 0 0 2 113 205 167 10 41 32 35 101 76 20 34 176 177 154 103 65 33
0 0 0 2 1 0 0 0 0 0 0 0 0 0 0 0 1 0 0 9 0 0 0 0 0 0 0 63 152 127 170 122 56 11 0 18 80 53 84 129 85 14 29 62
0 0 1 0 0 0 0 0 0 0 0 1 0 0 0 0 0 0 0 0 0 0 0 0 0 0 0 38 76 25 119 80 53 26 58 4 90 74 42 83 73 76 89 68
0 0 0 0 0 0 0 0 0 0 0 0 0 0 0 0 0 0 0 0 0 0 0 0 0 0 0 17 103 130 121 96 121 91 77 49 28 55 64 106 48 32 24 44
0 0 0 0 0 0 0 0 0 0 0 0 0 0 0 0 0 0 0 0 0 0 0 0 0 0 0 0 32 101 111 121 66 32 39 28 34 28 22 11 1 9 1 0
0 0 0 0 0 2 0 1 0 0 0 0 0 0 0 0 0 0 0 0 0 0 0 0 0 0 0 0 4 10 37 37 9 0 6 4 11 0 0 0 0 0 0 0
0 0 0 0 0 0 0 0 0 0 0 0 0 0 0 0 0 0 0 0 0 0 0 0 0 0 0 0 6 13 8 27 12 0 0 0 0 0 0 0 0 0 0 0
0 0 0 0 0 0 0 0 0 0 0 0 0 0 0 0 0 0 0 0 0 0 0 0 0 0 0 0 0 0 0 0 0 0 0 0 0 0 0 0 0 0 0 0
0 0 0 0 0 0 0 0 0 0 0 0 0 0 0 0 0 0 0 0 0 0 0 0 0 0 0 0 0 0 0 0 0 0 0 0 0 0 0 0 0 0 0 0
0 0 0 0 0 0 0 0 0 0 0 0 0 0 0 0 0 0 0 0 0 0 0 0 0 0 0 0 0 0 0 0 0 0 0 0 0 0 0 0 0 0 0 0
0 0 0 0 0 0 0 0 0 0 0 0 0 0 0 0 0 0 0 0 0 0 0 0 0 0 0 0 0 0 0 0 0 0 0 0 0 0 0 0 0 0 0 0
0 0 0 0 0 0 0 0 0 0 0 0 0 0 0 0 0 0 0 0 0 0 0 0 0 0 0 0 0 0 0 0 0 0 0 0 0 0 0 0 0 0 0 0
0 0 0 0 0 0 0 0 0 0 0 0 0 0 0 0 0 0 0 0 0 0 0 0 0 0 0 0 0 0 0 0 0 0 0 0 0 0 0 0 0 0 0 0
0 0 0 0 0 0 0 0 0 0 0 0 0 0 0 0 0 0 0 0 0 0 0 0 0 0 0 0 0 0 0 0 0 0 0 0 0 0 0 0 0 0 0 0
0 0 0 0 0 0 0 0 0 0 0 0 0 0 0 0 0 0 0 0 0 0 0 0 0 0 0 0 0 0 0 0 0 0 0 0 0 0 0 0 0 0 0 0
0 0 0 0 0 0 0 0 0 0 0 1 0 0 0 0 0 0 0 0 0 0 0 0 0 0 0 0 0 0 0 0 0 0 0 0 0 0 0 0 0 0 0 0
0 0 0 0 0 0 0 0 0 0 0 0 0 0 0 0 0 0 0 0 0 0 0 0 0 0 0 0 0 0 0 0 0 0 0 0 0 0 0 0 0 0 0 0
0 0 0 0 0 0 0 0 0 0 0 0 0 0 0 0 0 0 0 0 0 0 0 0 0 0 0 0 0 0 0 0 0 0 0 0 0 0 0 0 0 0 0 0
0 0 0 0 0 0 0 0 0 0 0 0 0 0 0 0 0 0 0 0 0 0 0 0 0 0 0 0 0 0 0 0 0 0 0 0 0 0 0 0 0 0 0 0
0 0 0 0 0 0 0 0 0 0 0 0 0 0 0 0 0 0 0 0 0 0 0 0 0 0 0 0 0 0 0 0 0 0 0 0 0 0 0 0 0 0 0 0
0 0 0 0 0 0 0 0 0 0 0 0 0 0 0 0 0 0 0 0 0 0 0 0 0 0 0 0 0 0 0 0 0 0 0 0 0 0 0 0 0 0 0 0
CIN
-0 -0 -0 -0 -0 -0 -0 -0 -0 -0 -0 -0 -0 -0 -0 -0 -4 -0 -0 -0 -0 -0 -0 -138 -18 -11 -24 -12 -7 -22 -49 -46 -67 -76 -90 -124 -226 -0 -0 -0 -0 -0 -247 -204
-0 -0 -0 -0 -0 -0 -0 -0 -0 -0 -0 -7 -0 -0 -20 -0 -0 -0 -0 -0 -0 -0 -0 -133 -65 -30 -38 -12 -22 -27 -36 -25 -2 -13 -30 -69 -152 -258 -224 -217 -0 -0 -0 -0
-0 -0 -0 -0 -0 -0 -0 -0 -0 -0 -0 -3 -33 -7 -0 -0 -0 -0 -0 -0 -0 -0 -0 -0 -63 -68 -27 -11 -9 -0 -0 -0 -0 -31 -57 -71 -98 -88 -96 -117 -158 -130 -0 -0
-0 -0 -0 -2 -0 -0 -0 -0 -0 -5 -0 -1 -29 -3 -5 -0 -0 -0 -0 -0 -0 -0 -0 -0 -101 -45 -57 -38 -29 -6 -5 -25 -1 -34 -47 -77 -67 -36 -64 -118 -169 -168 -192 -0
-0 -0 -0 -0 -0 -0 -0 -0 -0 -1 -0 -0 -0 -19 -0 -0 -0 -0 -0 -0 -0 -0 -0 -0 -0 -95 -65 -1 -6 -0 -0 -41 -17 -3 -29 -72 -74 -84 -87 -76 -66 -108 -144 -50
-0 -0 -0 -0 -0 -0 -0 -0 -0 -0 -0 -0 -0 -0 -0 -0 -0 -0 -0 -0 -0 -0 -0 -0 -0 -0 -14 -62 -23 -21 -59 -54 -68 -17 -4 -34 -85 -64 -48 -47 -75 -93 -105 -101
-0 -0 -0 -0 -0 -0 -0 -0 -0 -0 -0 -0 -0 -0 -0 -0 -5 -0 -0 -1 -0 -0 -0 -0 -0 -0 -0 -110 -46 -29 -18 -10 -10 -82 -0 -27 -22 -1 -19 -57 -93 -128 -92 -68
-0 -0 -0 -0 -0 -0 -0 -0 -0 -0 -0 -16 -0 -0 -0 -0 -0 -0 -0 -0 -0 -0 -0 -0 -0 -0 -0 -113 -71 -87 -25 -49 -52 -36 -4 -0 -0 -12 -10 -10 -69 -30 -49 -65
-0 -0 -0 -0 -0 -0 -0 -0 -0 -0 -0 -0 -0 -0 -0 -0 -0 -0 -0 -0 -0 -0 -0 -0 -0 -0 -0 -138 -89 -93 -88 -74 -60 -36 -28 -20 -39 -13 -24 -41 -62 -89 -134 -121
-0 -0 -0 -0 -0 -0 -0 -0 -0 -0 -0 -0 -0 -0 -0 -0 -0 -0 -0 -0 -0 -0 -0 -0 -0 -0 -0 -0 -155 -146 -131 -96 -116 -115 -94 -108 -95 -102 -141 -82 -174 -198 -142 -0
-0 -0 -0 -0 -0 -0 -0 -0 -0 -0 -0 -0 -0 -0 -0 -0 -0 -0 -0 -0 -0 -0 -0 -0 -0 -0 -0 -0 -152 -175 -152 -153 -182 -7 -175 -119 -190 -0 -0 -0 -0 -0 -0 -0
-0 -0 -0 -0 -0 -0 -0 -0 -0 -0 -0 -0 -0 -0 -0 -0 -0 -0 -0 -0 -0 -0 -0 -0 -0 -0 -0 -0 -236 -196 -205 -187 -220 -0 -0 -0 -0 -0 -0 -0 -0 -0 -0 -0
-0 -0 -0 -0 -0 -0 -0 -0 -0 -0 -0 -0 -0 -0 -0 -0 -0 -0 -0 -0 -0 -0 -0 -0 -0 -0 -0 -0 -0 -0 -0 -0 -0 -0 -0 -0 -0 -0 -0 -0 -0 -0 -0 -0
-4 -4 -0 -0 -0 -0 -0 -0 -0 -0 -0 -0 -0 -0 -0 -0 -0 -0 -0 -0 -0 -0 -0 -0 -0 -0 -0 -0 -0 -0 -0 -0 -0 -0 -0 -0 -0 -0 -0 -0 -0 -0 -0 -0
-0 -0 -0 -0 -0 -0 -0 -0 -0 -0 -0 -0 -0 -0 -0 -0 -0 -0 -0 -0 -0 -0 -0 -0 -0 -0 -0 -0 -0 -0 -0 -0 -0 -0 -0 -0 -0 -0 -0 -0 -0 -0 -0 -0
-0 -0 -0 -0 -0 -0 -0 -0 -0 -0 -0 -0 -0 -0 -0 -0 -0 -0 -0 -0 -0 -0 -0 -0 -0 -0 -0 -0 -0 -0 -0 -0 -0 -0 -0 -0 -0 -0 -0 -0 -0 -0 -0 -0
-0 -0 -0 -0 -0 -0 -0 -0 -0 -0 -0 -0 -0 -0 -0 -0 -0 -0 -0 -0 -0 -0 -0 -0 -0 -0 -0 -0 -0 -0 -0 -0 -0 -0 -0 -0 -0 -0 -0 -0 -0 -0 -0 -0
-0 -0 -0 -0 -0 -0 -0 -0 -0 -0 -0 -0 -0 -0 -0 -0 -0 -0 -0 -0 -0 -0 -0 -0 -0 -0 -0 -0 -0 -0 -0 -0 -0 -0 -0 -0 -0 -0 -0 -0 -0 -0 -0 -0
-0 -0 -0 -0 -0 -0 -0 -0 -0 -2 -0 -0 -0 -0 -0 -0 -0 -0 -0 -0 -0 -0 -0 -0 -0 -0 -0 -0 -0 -0 -0 -0 -0 -0 -0 -0 -0 -0 -0 -0 -0 -0 -0 -0
-0 -0 -0 -0 -0 -0 -0 -0 -0 -0 -0 -0 -0 -0 -0 -0 -0 -0 -0 -0 -0 -0 -0 -0 -0 -0 -0 -0 -0 -0 -0 -0 -0 -0 -0 -0 -0 -0 -0 -0 -0 -0 -0 -0
-0 -0 -0 -0 -0 -0 -0 -0 -0 -0 -0 -12 -0 -0 -0 -0 -0 -0 -0 -0 -0 -0 -0 -0 -0 -0 -0 -0 -0 -0 -0 -0 -0 -0 -0 -0 -0 -0 -0 -0 -0 -0 -0 -0
-0 -0 -0 -0 -0 -0 -0 -0 -0 -0 -0 -0 -0 -0 -0 -0 -0 -0 -0 -0 -0 -0 -0 -0 -0 -0 -0 -0 -0 -0 -0 -0 -0 -0 -0 -0 -0 -0 -0 -0 -0 -0 -0 -0
-0 -0 -0 -0 -0 -0 -0 -0 -0 -0 -0 -0 -0 -0 -0 -0 -0 -0 -0 -0 -0 -0 -0 -0 -0 -0 -0 -0 -0 -0 -0 -0 -0 -0 -0 -0 -0 -0 -0 -0 -0 -0 -0 -0
-0 -0 -0 -0 -0 -0 -0 -0 -0 -0 -0 -0 -0 -0 -0 -0 -0 -0 -0 -0 -0 -0 -0 -0 -0 -0 -0 -0 -0 -0 -0 -0 -0 -0 -0 -0 -0 -0 -0 -0 -0 -0 -0 -0
-0 -0 -0 -0 -0 -0 -0 -0 -0 -0 -0 -0 -0 -0 -0 -0 -0 -0 -0 -0 -0 -0 -0 -0 -0 -0 -0 -0 -0 -0 -0 -0 -0 -0 -0 -0 -0 -0 -0 -0 -0 -0 -0 -0
-0 -0 -0 -0 -0 -0 -0 -0 -0 -0 -0 -0 -0 -0 -0 -6 -16 -0 -0 -0 -0 -0 -0 -0 -0 -0 -0 -0 -0 -0 -0 -0 -0 -0 -0 -0 -0 -0 -0 -0 -0 -0 -0 -0
Wind_Speed
17 18 16 15 13 22 30 31 32 35 34 35 40 47 39 34 32 39 38 38 41 43 42 39 36 33 29 24 25 25 37 32 26 19 24 27 23 21 17 16 14 12 11 9
18 15 12 3 22 22 26 28 30 32 29 35 42 41 35 34 35 35 42 42 41 44 44 40 36 33 37 34 29 26 27 27 22 30 29 29 23 21 19 17 16 14 12 10
15 6 17 17 19 20 22 24 25 25 25 30 36 34 33 31 27 30 37 38 42 46 44 40 36 41 35 31 30 29 28 28 28 33 27 24 19 18 19 21 19 17 15 14
12 15 13 15 17 17 17 19 25 25 23 29 30 36 28 30 27 26 31 37 42 45 39 37 35 33 37 38 36 33 27 28 28 27 25 24 22 22 27 26 22 20 18 19
17 13 11 12 13 14 14 15 19 21 16 19 25 25 23 26 27 30 32 36 40 38 34 33 33 34 27 31 29 26 23 32 41 27 26 25 24 27 26 21 17 20 17 21
14 13 12 14 12 16 17 14 17 18 17 18 18 25 20 24 24 27 23 27 31 27 27 26 26 25 29 29 27 23 22 23 40 40 26 30 32 29 21 18 15 16 20 20
13 15 11 12 12 12 15 16 22 24 21 18 13 13 16 21 24 21 19 25 24 23 23 21 21 23 27 29 24 18 15 15 16 26 50 38 35 35 30 21 23 25 23 19
11 13 10 11 10 13 11 13 21 30 25 21 12 16 13 12 18 23 24 15 23 25 19 16 15 15 18 21 20 17 14 14 16 22 29 7 13 33 35 34 35 27 28 14
8 11 9 10 14 14 15 10 10 18 17 18 15 11 12 12 12 15 18 15 23 20 18 16 12 14 17 16 14 10 7 7 9 12 12 1 5 7 10 4 3 9 2 6
8 12 7 8 16 13 13 10 12 13 23 22 17 12 13 12 10 9 11 15 20 18 18 17 14 13 14 16 14 12 8 6 6 6 7 7 5 1 3 4 2 4 5 3
8 10 6 8 7 4 7 7 8 9 15 23 20 13 12 10 10 9 8 10 14 18 19 18 16 16 14 12 13 13 10 7 6 6 6 5 3 2 2 2 2 3 3 3
9 11 12 10 11 13 8 7 7 10 13 13 13 11 12 9 8 6 6 8 8 10 21 22 20 18 16 14 12 10 10 9 7 7 7 7 7 6 6 5 4 3 4 5
9 10 11 8 10 9 7 10 10 7 7 9 13 13 11 10 10 8 6 6 6 9 13 13 23 21 19 16 13 12 12 12 10 9 8 8 9 8 7 7 6 6 5 6
18 7 11 12 12 10 8 9 12 7 6 6 7 6 8 10 10 11 9 9 8 9 8 11 15 17 17 18 15 14 12 12 11 9 9 8 9 9 8 7 7 7 8 8
19 23 15 7 11 10 8 8 11 10 8 8 7 5 8 11 12 12 13 14 13 13 13 13 14 15 17 17 16 16 15 15 12 10 8 8 9 8 7 8 9 9 9 9
14 21 21 23 15 6 7 8 9 11 9 6 7 9 13 14 14 15 15 17 16 16 16 16 15 15 14 15 14 13 13 14 12 10 10 10 9 7 8 7 8 9 10 10
18 19 19 20 19 17 8 11 12 12 10 11 10 12 14 15 15 16 18 18 18 18 17 17 17 17 14 12 11 11 10 10 10 9 9 9 8 8 9 9 9 10 11 11
18 18 17 18 17 18 15 15 13 11 11 13 12 13 15 15 15 17 19 19 20 21 20 20 19 19 18 17 14 10 10 10 11 11 11 10 9 9 9 9 11 11 11 12
18 18 19 18 18 18 16 14 14 14 14 15 15 16 17 17 16 17 19 20 21 22 23 24 23 23 19 18 16 15 15 15 15 14 13 12 11 11 12 12 11 11 11 12
19 19 19 19 19 17 16 15 14 13 13 15 15 17 19 19 18 19 21 22 22 22 22 23 23 20 17 16 15 16 16 18 19 19 18 16 14 13 12 11 11 12 12 13
20 19 21 20 19 17 16 14 14 15 12 14 14 15 17 17 16 19 21 21 22 22 23 22 20 18 17 14 13 14 14 15 15 13 13 13 13 13 12 12 13 12 12 13
20 21 21 21 21 20 17 17 15 16 13 15 17 18 18 16 15 17 18 20 21 22 22 22 20 19 18 17 16 16 16 17 16 15 13 13 13 13 12 13 14 13 14 16
19 19 20 20 20 20 20 20 18 17 15 15 17 18 17 17 17 16 18 19 20 20 20 20 18 17 17 17 17 17 18 17 16 16 15 15 16 16 15 14 15 16 18 20
17 18 18 20 19 20 19 19 18 17 15 14 10 17 18 19 17 18 19 20 20 20 20 20 19 18 18 18 17 18 19 19 18 19 19 17 17 17 18 20 20 19 19 21
17 19 18 17 18 18 17 17 17 17 15 14 12 11 10 14 18 19 19 19 19 20 20 20 20 19 19 18 18 19 20 20 19 19 19 19 19 19 18 19 19 20 21 21
15 16 17 16 16 16 16 16 15 15 13 12 11 11 10 10 8 13 17 17 17 18 19 20 20 20 19 19 19 20 21 20 20 20 21 22 24 23 23 22 23 22 23 22
Wind_Direction
358 346 338 342 350 222 257 251 249 248 249 232 219 214 225 229 231 222 231 241 242 239 236 234 225 225 214 211 212 212 215 218 217 205 216 221 220 221 223 227 224 222 228 233
357 350 8 143 236 237 237 244 246 251 226 213 205 213 225 224 230 232 235 240 243 239 231 232 230 226 226 216 217 220 220 222 218 221 223 227 227 230 229 230 231 233 238 240
17 59 245 234 229 233 228 230 227 206 208 210 203 207 209 222 231 223 235 243 242 235 225 227 227 225 231 229 228 226 229 228 223 226 226 228 228 234 231 232 235 239 244 253
87 191 224 225 216 201 227 217 203 204 200 199 204 199 210 210 225 240 243 244 237 230 220 225 224 224 226 226 237 232 232 233 230 229 226 223 220 227 233 234 238 242 247 255
145 187 215 226 229 197 186 226 208 204 200 195 203 207 219 215 220 229 244 237 232 223 215 223 226 229 232 231 235 234 239 238 235 236 232 231 234 233 233 238 241 244 253 259
171 189 173 203 228 244 218 200 207 210 207 187 202 201 208 217 228 218 238 227 227 211 212 222 228 235 240 246 244 241 238 238 225 241 232 240 239 239 236 236 234 247 258 267
142 140 176 154 226 218 231 216 191 194 196 191 209 201 221 239 238 239 229 223 217 210 214 225 234 239 243 241 241 237 229 229 235 247 237 250 239 246 251 242 247 257 258 266
145 143 131 120 159 239 222 225 207 194 198 198 222 204 237 270 261 242 234 230 216 218 211 221 230 235 236 235 239 241 242 243 248 250 251 277 232 253 254 247 223 244 240 267
161 144 152 126 103 199 208 221 237 204 212 203 214 228 244 289 258 250 237 237 225 222 221 231 244 244 240 243 244 256 258 253 253 258 256 246 195 180 162 217 243 270 289 102
168 134 165 126 131 161 198 224 221 219 200 198 207 221 247 277 279 272 256 233 232 223 231 241 255 261 261 256 256 263 266 262 262 265 263 268 268 269 294 288 60 55 66 38
184 161 180 156 159 282 264 281 262 241 223 207 209 230 263 280 293 301 257 243 234 222 237 247 255 265 273 264 256 256 261 265 279 283 281 282 292 307 325 324 7 26 18 354
212 180 152 147 166 159 237 304 278 229 213 216 214 231 305 288 282 310 314 265 246 248 250 249 260 267 268 270 267 267 267 272 281 286 287 288 293 293 291 290 301 310 321 329
216 212 184 188 172 158 311 315 325 298 256 234 227 231 325 339 350 329 314 303 291 270 251 263 251 258 267 273 274 270 267 270 279 278 279 286 288 288 287 287 291 302 312 324
125 219 175 170 193 200 311 323 338 317 251 245 228 240 310 325 341 341 321 320 310 318 293 278 266 263 267 270 274 272 273 274 280 284 284 291 292 289 289 292 297 301 309 312
122 110 144 295 204 196 215 323 344 347 303 258 252 270 323 342 343 331 336 332 322 319 313 310 292 279 273 271 273 273 273 276 279 281 288 297 295 297 296 295 300 305 307 311
149 113 121 113 120 354 330 303 320 338 348 342 321 298 338 351 349 342 333 342 335 329 322 310 307 306 300 286 283 282 278 276 280 284 289 291 291 297 299 302 301 304 305 308
114 112 120 117 138 154 252 291 307 322 328 313 300 308 309 324 332 329 323 324 324 327 330 328 324 312 321 320 306 292 287 284 284 281 282 286 293 298 299 299 299 296 298 303
107 116 116 119 126 126 160 293 28 358 320 322 328 325 315 313 310 312 307 308 309 306 305 305 312 304 295 291 295 300 298 291 285 283 285 288 290 292 293 292 292 296 298 300
106 108 109 115 118 122 123 285 334 283 292 304 321 322 316 318 320 320 324 323 316 310 305 296 298 297 301 295 292 291 288 285 284 282 281 282 286 288 289 289 292 298 300 303
101 103 105 108 108 112 129 323 331 337 317 312 322 321 306 307 315 312 309 313 315 318 314 307 304 306 306 303 299 297 292 287 284 284 284 285 286 286 286 288 289 295 296 298
101 102 101 104 103 113 133 138 321 131 96 321 329 326 326 331 331 320 321 320 322 320 316 316 312 307 304 306 309 309 305 299 297 295 292 290 287 287 287 288 293 295 297 298
102 97 97 99 97 98 129 133 129 128 330 324 324 320 323 349 353 334 328 325 326 325 324 325 321 312 304 302 301 302 301 300 299 294 295 293 292 289 289 289 292 291 291 293
100 102 98 100 99 105 112 116 131 141 136 337 324 327 332 334 336 339 334 332 330 330 329 328 328 325 319 313 306 300 300 301 299 295 293 290 288 289 289 287 289 289 290 290
105 104 100 98 102 104 102 117 123 129 129 129 52 331 325 324 329 329 326 325 326 328 327 326 329 326 323 322 318 310 304 302 300 295 294 294 293 291 292 291 291 291 290 291
101 101 100 99 103 103 105 107 110 112 121 126 125 119 89 354 326 326 327 326 324 323 325 328 328 328 325 327 325 320 313 308 304 300 297 296 295 292 291 290 290 291 294 295
110 100 98 96 109 101 108 110 105 99 104 112 110 114 117 115 89 356 333 329 328 326 327 326 326 326 326 326 323 320 317 313 308 304 302 297 290 293 294 293 294 294 294 295